Regional Weather Roundup
Issued by NWS

Home | Current Version | Previous Version | Text Only | Print | Product List | Glossary On
Versions: 1 2 3 4 5 6 7 8 9 10 11 12 13 14 15 16 17 18 19 20 21 22 23 24 25 26 27 28 29 30 31 32 33 34 35 36 37 38 39 40 41 42 43 44 45 46 47 48 49 50
000
ASUS43 KMKX 300800
RWRWI

WISCONSIN REGIONAL WEATHER ROUNDUP
NATIONAL WEATHER SERVICE MILWAUKEE/SULLIVAN WI
300 AM CDT SAT AUG 30 2014

NOTE: "FAIR" INDICATES FEW OR NO CLOUDS BELOW 12,000 FEET WITH NO
SIGNIFICANT WEATHER AND/OR OBSTRUCTIONS TO VISIBILITY.

WIZ001-002-006>008-014>016-023>028-300900-
NORTHWEST WISCONSIN

CITY           SKY/WX    TMP DP  RH WIND       PRES   REMARKS
SUPERIOR ARPT  CLOUDY    61  61 100 CALM      29.79S FOG
ASHLAND        CLOUDY    62  61  96 NE6       29.80S
HAYWARD        RAIN      64  64 100 NE3       29.78S FOG
SIREN          CLOUDY    64  64  97 N5        29.78S
RICE LAKE      RAIN      64  63  95 CALM      29.77F
LADYSMITH      CLOUDY    65  64  97 SE5       29.79F FOG
EAU CLAIRE     LGT RAIN  67  66  97 NE3       29.74F
MENOMONIE      LGT RAIN  66  66  99 CALM      29.75F
NEW RICHMOND   LGT RAIN  65  65 100 N3        29.76F
OSCEOLA        LGT RAIN  66  66 100 CALM      29.79F
$$

WIZ003>005-009-010-017-018-300900-
NORTH CENTRAL WISCONSIN

CITY           SKY/WX    TMP DP  RH WIND       PRES   REMARKS
WOODRUFF       LGT RAIN  65  63  94 S5        29.80F
RHINELANDER    LGT RAIN  63  63 100 S3        29.80F
EAGLE RIVER    LGT RAIN  63  63 100 CALM      29.80F
LAND O LAKES   RAIN      64  64  99 S3        29.81F
PHILLIPS       RAIN      63  63 100 CALM      29.79S
TOMAHAWK       LGT RAIN  64  63  97 CALM      29.80S
MEDFORD        LGT RAIN  64  64  99 SE5       29.78F
MERRILL        RAIN      65  65 100 SE6       29.79F
$$

WIZ029-030-035-036-043>047-300900-
CENTRAL WISCONSIN

CITY           SKY/WX    TMP DP  RH WIND       PRES   REMARKS
WAUSAU         LGT RAIN  65  65 100 E3        29.75F FOG
MOSINEE        RAIN      64  64 100 NE3       29.78F
MARSHFIELD     LGT RAIN  66  65  96 NE6       29.75F FOG
STEVENS POINT  HVY RAIN  64  64  99 NE5       29.77F
WAUPACA        CLOUDY    68  67  94 N8        29.76F
WAUTOMA        CLOUDY    68  66  94 E9        29.76F FOG
WISC RAPIDS    HVY RAIN  67  67 100 CALM      29.77R VSB 1
CAMP DOUGLAS   CLOUDY    68  68 100 SE3       29.74F
$$

WIZ011>013-019>022-031-037>040-048>050-300900-
NORTHEAST WISCONSIN

CITY           SKY/WX    TMP DP  RH WIND       PRES   REMARKS
ANTIGO         LGT RAIN  63  63 100 CALM      29.80F
STURGEON BAY   CLOUDY    70  66  88 CALM      29.78F
GREEN BAY      LGT RAIN  68  66  93 NW8       29.78F
MANITOWOC      NOT AVBL
APPLETON       CLOUDY    68  63  83 N10       29.79F
CLINTONVILLE   RAIN      66  64  94 N3        29.77F
OSHKOSH        LGT RAIN  72  69  90 SW8       29.77F
$$

WIZ032>034-041-042-053>061-300900-
SOUTHWEST WISCONSIN

CITY           SKY/WX    TMP DP  RH WIND       PRES   REMARKS
LA CROSSE      LGT RAIN  70  67  90 NW5       29.73F FOG
SPARTA         RAIN      67  66  97 W5        29.75S
VIROQUA        CLOUDY    67  67 100 SW8       29.76S
BOSCOBEL       MOCLDY    70  67  90 S3        29.76S
PRAIRIE DU CHI CLOUDY    69  66  91 CALM      29.76S
PLATTEVILLE    CLOUDY    71  69  95 SW10      29.80S
$$

WIZ056-057-062-063-064-067-068-300900-
SOUTH CENTRAL WISCONSIN

CITY           SKY/WX    TMP DP  RH WIND       PRES   REMARKS
BARABOO/DELLS  CLOUDY    70  67  89 SW7       29.76S
LONE ROCK      NOT AVBL
WATERTOWN      CLOUDY    71  71 100 S5        29.79F
MADISON        MOCLDY    72  68  87 S10       29.78S
MIDDLETON      CLOUDY    72  70  94 SW9       29.78F
MONROE         CLOUDY    70  68  94 S12       29.80S
JANESVILLE     CLOUDY    72  68  88 S9        29.80S
$$

WIZ051-052-058>065-066-070>072-300900-
SOUTHEAST WISCONSIN

CITY           SKY/WX    TMP DP  RH WIND       PRES   REMARKS
MILWAUKEE      CLOUDY    74  68  81 S9        29.81F
WAUKESHA       CLOUDY    70  68  94 S6        29.82S
MILWAUKEE/TIMM CLOUDY    72  66  83 S8        29.81F
RACINE         CLOUDY    73  68  84 S6        29.82F
BURLINGTON     CLOUDY    70  68  93 S5        29.81F
KENOSHA        CLOUDY    74  69  85 S8        29.82F
FOND DU LAC    CLOUDY    73  68  84 S10       29.78F
SHEBOYGAN      CLOUDY    71  68  90 S9        29.79F FOG
WEST BEND      CLOUDY    72  66  83 S5        29.80F
JUNEAU         LGT RAIN  71  69  92 S8        29.80F
$$

LSZ147-162-300900-
LAKE SUPERIOR

STATION/POSITION TIME  TEMP    WIND        PRES    WAVE
                       AIR SEA DIR/SP/G            HT/PER
                 (UTC) (F)     (DEG/KT/KT) (MB)    (FT/S)
W MID LAKE BUOY  0650   58 58   50/  4/  4 1008.8R   0
DEVILS ISLAND    0700   61      70/  4/  4 1009.0R
PORT WING        0740   62      CALM  /  1 1009.1R
SAXON HARBOR     0700   63      30/  5/  8 1009.1S
$$

LMZ867-665-643>646-300900-
LAKE MICHIGAN

STATION/POSITION TIME  TEMP    WIND        PRES    WAVE
                       AIR SEA DIR/SP/G            HT/PER
                 (UTC) (F)     (DEG/KT/KT) (MB)    (FT/S)
N MID LAKE BUOY  0650   68 65  210/ 12/ 14 1009.4F   4/ 6
NORTHPORT PIER   0700   70     170/  7/ 14 1009.1F
SISTER BAY       0626   71     190/  6/  8   N/A
ALGOMA LAKESHORE 0553          220/  7/  8   N/A
KEWAUNEE LAKESHO 0700   64     210/  8/ 11 1008.1F
SHEBOYGAN LAKESH 0700   69 62  180/ 20/ 20 1009.0F
ATWATER BUOY     0700   69     160/ 14/ 16 1010.5F
MILWAUKEE LAKESH 0700   72     180/  9/ 10   N/A
S MID LAKE BUOY  0650   72 69  170/ 17/ 19 1010.5F
KENOSHA   LAKESH 0700   70     180/ 11/ 12 1009.8F
$$

TC  - TEMPERATURE IN CELSIUS
VSB - VISIBILITY IN STATUTE MILES
WCI - WIND CHILL INDEX
HX  - HEAT INDEX



USA.gov is the U.S. government's official web portal to all federal, state and local government web resources and services.